West Palm Beach, FL

2:51 PM EST on November 20, 2019 (GMT -0500)
Palm Beach International

Weather History for KPBI - July, 2019

Change the Weather History Date:

Wednesday, July 31, 2019

  Actual Average Record
Temperature  
Mean Temperature 84 °F 83 °F  
Max Temperature 90 °F 91 °F 96 °F (1990)
Min Temperature 78 °F 76 °F 67 °F (1914)
Degree Days  
Heating Degree Days 0 0  
Month to date heating degree days 0 0  
Since 1 June heating degree days 0 0  
Since 1 July heating degree days 0 0  
Cooling Degree Days 19 18  
Month to date cooling degree days 612 549  
Year to date cooling degree days 2584 2148  
Since 1 June cooling degree days 1183 1039  
Growing Degree Days 34 (Base 50)    
Moisture  
Dew Point 75 °F    
Average Humidity 77    
Maximum Humidity 91    
Minimum Humidity 63    
Precipitation  
Precipitation 0.02 in 0.19 in 12.01 in (1933)
Month to date precipitation 3.12 5.76  
Year to date precipitation 31.32 32.77  
Snow  
Snow 0.00 in - - ()
Month to date snowfall 0.0  
Since 1 June snowfall 0.0  
Since 1 July snowfall 0.0  
Snow Depth 0.00 in    
Sea Level Pressure  
Sea Level Pressure 30.03 in    
Wind  
Wind Speed 8 mph (East)    
Max Wind Speed 18 mph    
Max Gust Speed 24 mph    
Visibility 10 miles    
Events Thunderstorm    
T = Trace of Precipitation, MM = Missing Value Source: NWS Daily Summary

Daily Weather History Graph

Daily Weather History Graph

Search for Another Location

Airport or City:

Astronomy

Jul. 31, 2019 Rise Set
Actual Time 6:44 AM EDT 8:08 PM EDT
Civil Twilight 6:19 AM EDT 8:33 PM EDT
Nautical Twilight 5:49 AM EDT 9:03 PM EDT
Astronomical Twilight 5:18 AM EDT 9:34 PM EDT
Moon 6:01 AM EDT (7/31) 8:03 PM EDT (7/31)
Length of Visible Light 14h 14m
Length of Day
13h 24m
Waning Crescent, 0% of the Moon is Illuminated
Jul 31
Waning Crescent
Jul 31
New
Aug 7
First Quarter
Aug 15
Full
Aug 23
Last Quarter

Hourly Weather History & Observations

Time (EDT) Temp. Heat Index Dew Point Humidity Pressure Visibility Wind Dir Wind Speed Gust Speed Precip Events Conditions
12:53 AM 84.0 °F 91.9 °F 75.0 °F 74% 30.03 in 10.0 mi SE 8.1 mph - N/A   Partly Cloudy
1:53 AM 82.9 °F 89.4 °F 73.9 °F 74% 30.02 in 10.0 mi SE 6.9 mph - N/A   Scattered Clouds
2:53 AM 82.9 °F 90.2 °F 75.0 °F 77% 30.01 in 10.0 mi SE 6.9 mph - N/A   Partly Cloudy
3:53 AM 84.0 °F 90.2 °F 73.0 °F 69% 30.01 in 10.0 mi Calm Calm - N/A   Partly Cloudy
4:53 AM 79.0 °F - 75.0 °F 88% 30.00 in 10.0 mi NW 4.6 mph - N/A   Partly Cloudy
5:38 AM 80.1 °F 85.4 °F 75.9 °F 87% 30.01 in 10.0 mi NNW 3.5 mph - N/A Thunderstorm Thunderstorm
5:53 AM 80.1 °F 85.1 °F 75.0 °F 85% 30.01 in 10.0 mi Calm Calm - N/A Thunderstorm Thunderstorm
6:25 AM 80.1 °F 85.4 °F 75.9 °F 87% 30.02 in 10.0 mi SSW 3.5 mph - N/A   Mostly Cloudy
6:53 AM 80.1 °F 85.1 °F 75.0 °F 85% 30.02 in 10.0 mi WSW 3.5 mph - N/A   Mostly Cloudy
7:53 AM 81.0 °F 87.3 °F 75.9 °F 85% 30.04 in 10.0 mi West 3.5 mph - N/A   Mostly Cloudy
8:53 AM 84.0 °F 90.2 °F 73.0 °F 69% 30.05 in 10.0 mi East 5.8 mph - N/A   Mostly Cloudy
9:53 AM 84.9 °F 94.1 °F 75.9 °F 74% 30.06 in 10.0 mi East 9.2 mph - N/A   Mostly Cloudy
10:53 AM 86.0 °F 96.0 °F 75.9 °F 72% 30.07 in 10.0 mi ESE 8.1 mph - N/A   Mostly Cloudy
11:53 AM 86.0 °F 95.1 °F 75.0 °F 70% 30.07 in 10.0 mi East 8.1 mph - N/A   Mostly Cloudy
12:53 PM 89.1 °F 99.1 °F 75.0 °F 63% 30.06 in 10.0 mi ESE 10.4 mph - N/A   Mostly Cloudy
1:53 PM 89.1 °F 99.1 °F 75.0 °F 63% 30.05 in 10.0 mi East 12.7 mph - N/A   Mostly Cloudy
2:53 PM 88.0 °F 98.5 °F 75.9 °F 67% 30.03 in 10.0 mi ESE 12.7 mph - 0.02 in   Scattered Clouds
3:53 PM 89.1 °F 99.1 °F 75.0 °F 63% 30.01 in 10.0 mi ESE 15.0 mph 23.0 mph N/A   Scattered Clouds
4:53 PM 88.0 °F 96.5 °F 73.9 °F 63% 30.00 in 10.0 mi ESE 15.0 mph - N/A   Scattered Clouds
5:53 PM 87.1 °F 96.3 °F 75.0 °F 67% 30.01 in 10.0 mi East 9.2 mph - N/A   Mostly Cloudy
6:53 PM 86.0 °F 95.1 °F 75.0 °F 70% 30.02 in 10.0 mi East 10.4 mph - N/A   Mostly Cloudy
7:53 PM 84.9 °F 92.1 °F 73.9 °F 69% 30.02 in 10.0 mi East 9.2 mph - N/A   Mostly Cloudy
8:53 PM 84.9 °F 90.7 °F 72.0 °F 65% 30.04 in 10.0 mi East 6.9 mph - N/A   Mostly Cloudy
9:53 PM 84.9 °F 90.7 °F 72.0 °F 65% 30.04 in 10.0 mi ENE 6.9 mph - N/A   Scattered Clouds
10:53 PM 84.9 °F 92.1 °F 73.9 °F 69% 30.05 in 10.0 mi ENE 4.6 mph - N/A   Mostly Cloudy
11:53 PM 84.0 °F 89.6 °F 72.0 °F 67% 30.04 in 10.0 mi East 4.6 mph - N/A   Mostly Cloudy